Wind_Speed
53 49 46 43 40 37 35 33 32 31 31 31 30 28 27 27 28 30 32 34 36 38 40 42 43 45 47 48 49 48 47 45 44 42 42 41 38 35 33 31 30 31 32 34 35 37 39 40 39 40 41 41 41 41 41 41 41 40 40 39 39 40 43
48 46 42 39 37 35 33 32 31 30 31 31 30 30 29 28 29 30 31 33 35 37 40 42 44 44 45 46 45 45 44 42 41 40 40 39 36 34 31 30 31 32 32 32 33 35 38 40 40 40 41 41 43 44 44 43 42 41 38 37 37 38 40
44 43 41 38 36 34 32 31 30 29 29 29 29 30 30 30 30 30 31 32 33 34 36 38 39 41 42 42 42 42 41 40 39 38 37 36 34 33 31 29 29 32 33 32 32 33 36 40 41 41 42 42 43 45 44 42 40 38 37 36 36 36 37
42 41 39 37 35 34 32 30 28 28 27 27 27 27 28 29 29 30 31 31 31 32 33 34 35 36 37 39 39 39 38 37 37 36 35 34 32 31 31 30 30 31 32 32 32 33 37 41 42 42 41 40 41 42 41 39 37 36 36 36 36 36 36
37 38 37 36 34 31 30 28 27 27 26 26 26 25 25 25 26 27 28 29 30 30 30 31 32 33 34 36 37 37 37 37 36 35 34 33 32 33 33 33 32 31 31 32 33 35 37 40 40 39 39 37 38 38 38 37 36 35 35 35 35 34 33
30 31 32 32 31 29 28 27 27 27 27 26 26 25 24 23 23 24 25 26 26 26 27 27 27 28 30 32 33 35 35 36 36 36 35 35 35 36 36 36 36 35 34 34 35 35 36 38 38 38 38 37 37 37 36 36 35 34 34 33 33 32 31
29 29 29 28 28 27 26 27 27 28 27 27 27 26 25 23 23 23 23 24 24 25 25 25 26 26 27 29 30 32 33 34 34 35 36 36 38 39 39 39 38 38 39 39 39 38 37 38 39 38 38 38 38 38 37 36 34 33 32 32 32 32 32
32 32 31 31 28 27 27 27 27 27 27 28 28 27 26 24 23 24 24 25 26 26 26 26 27 27 27 29 30 31 32 32 32 32 33 35 37 39 41 42 42 42 42 42 42 42 42 41 41 41 41 41 41 40 39 38 36 35 34 34 33 33 34
37 36 35 34 31 29 29 29 29 29 29 29 29 29 28 26 25 25 26 27 28 29 29 29 29 29 30 30 31 31 31 31 31 31 31 32 34 36 39 42 44 45 46 47 47 47 47 47 46 45 44 44 44 43 42 40 39 38 37 36 36 36 36
41 40 38 36 34 32 32 33 33 33 33 32 32 32 31 29 28 28 28 29 29 30 30 30 31 31 32 32 32 33 33 33 33 32 32 32 33 34 35 38 41 44 47 48 49 50 50 50 49 47 45 45 46 45 44 42 41 40 39 38 37 37 38
43 43 41 39 39 39 39 38 37 36 36 35 34 34 33 32 31 31 31 30 31 31 31 32 32 32 33 33 33 33 34 35 35 35 35 34 34 35 35 37 38 40 42 43 45 46 46 46 46 46 45 45 46 46 45 44 43 42 41 40 39 39 39
45 45 43 42 41 42 42 40 38 37 37 38 37 37 36 36 35 34 33 33 33 34 34 34 34 34 35 35 35 35 35 35 36 37 37 37 37 37 38 38 39 39 40 41 41 42 42 43 43 44 43 44 44 44 45 45 45 44 43 42 41 40 40
44 44 45 45 43 43 41 40 39 38 40 40 41 42 42 42 41 39 38 37 36 37 37 37 37 37 37 37 37 37 37 37 38 38 38 38 38 39 39 39 40 40 41 41 42 42 42 42 42 42 43 43 43 43 43 44 45 45 45 44 43 42 42
46 45 46 47 47 46 44 42 42 42 44 45 46 47 47 48 48 48 46 43 41 40 40 40 40 40 39 39 39 39 39 39 40 40 40 40 40 40 40 40 40 41 42 42 43 43 44 44 44 44 44 44 44 44 44 45 45 46 46 46 45 44 43
51 50 50 51 51 50 48 47 44 43 45 47 50 51 50 50 51 51 51 49 47 45 43 43 43 43 42 42 41 41 41 41 42 42 42 42 42 41 41 40 40 41 42 43 44 44 45 46 46 46 47 47 48 48 49 49 48 48 48 47 47 46 46
56 56 55 55 54 53 52 51 49 48 49 50 52 54 54 54 52 51 51 51 50 48 47 47 47 46 46 45 44 43 43 44 44 44 44 44 43 42 41 41 40 40 41 42 44 45 46 48 49 49 50 51 51 52 53 52 52 51 51 50 49 49 49
60 60 60 58 57 57 56 56 57 57 57 57 58 58 57 55 52 50 51 52 51 50 50 50 50 49 50 49 48 47 46 46 46 46 46 45 45 44 44 43 42 42 41 42 44 45 47 49 50 51 51 52 52 53 53 53 53 54 54 53 53 52 52
65 65 64 62 61 61 62 63 63 63 63 63 62 60 57 55 53 52 52 52 52 51 51 52 52 52 52 52 51 51 50 49 49 48 48 48 47 47 47 47 46 46 45 45 46 46 47 48 49 50 50 50 50 50 51 52 52 53 54 54 54 55 54
70 69 69 68 67 67 68 68 67 66 66 65 62 59 57 58 57 56 55 54 53 53 53 53 53 54 54 54 54 53 52 52 52 52 51 51 51 50 50 50 50 49 49 50 50 50 50 50 50 50 50 49 49 49 49 50 51 51 51 52 54 54 54
70 70 70 70 69 69 69 69 68 68 66 64 61 58 58 60 62 61 59 58 57 56 55 54 54 55 55 56 56 55 55 54 54 55 54 54 53 53 52 52 52 52 53 53 53 52 52 51 51 50 50 50 49 49 49 50 50 50 50 51 52 53 54
71 71 71 71 70 70 70 70 70 69 67 63 61 60 60 62 64 64 63 62 60 59 58 57 56 56 57 57 57 57 56 56 56 56 56 55 54 54 53 53 53 53 53 53 52 52 51 50 50 50 50 50 50 50 50 51 51 50 50 51 53 53 54
75 76 75 74 74 73 71 71 70 68 66 64 62 61 61 62 64 65 64 63 62 61 60 60 59 59 59 59 58 58 57 56 56 56 56 55 53 53 52 51 50 51 51 51 50 49 48 48 48 49 50 50 50 50 50 51 52 50 50 51 52 53 53
74 75 75 74 72 70 68 67 67 66 66 64 62 61 61 62 63 63 63 62 62 62 61 60 60 59 59 60 60 59 58 56 55 55 55 55 54 53 49 44 43 45 47 48 48 47 47 47 47 48 49 50 50 50 50 51 51 50 50 50 50 50 50
71 72 72 71 70 69 68 68 68 67 66 64 62 61 60 60 59 58 57 57 57 57 57 57 58 58 59 59 59 59 58 56 55 54 53 53 54 53 45 37 36 38 40 42 43 43 43 44 46 47 49 51 51 50 50 50 51 50 50 48 47 47 47
70 70 71 71 71 71 71 71 71 69 66 63 61 58 56 55 55 54 53 51 51 51 53 56 57 58 58 58 59 59 58 56 55 54 52 51 51 50 45 41 41 42 43 44 45 45 44 45 47 49 51 51 49 47 47 48 49 50 50 50 49 48 48
69 70 70 71 71 72 72 72 71 70 68 64 60 56 52 52 55 56 55 52 51 52 54 57 58 57 57 57 58 58 58 57 56 55 54 52 52 51 51 51 52 53 54 52 52 52 50 47 49 52 53 51 49 48 47 47 50 52 53 52 52 52 51
69 70 70 71 71 72 72 72 72 71 70 67 64 59 56 54 55 58 59 59 56 52 49 51 55 55 54 56 57 58 58 58 58 58 56 55 54 53 55 57 58 61 61 57 55 54 52 51 53 55 54 52 51 51 52 54 57 59 58 56 55 55 55
70 71 71 72 72 72 73 73 73 73 72 71 69 67 64 61 58 60 63 62 59 54 50 52 55 53 51 53 55 56 56 56 58 59 58 57 57 57 57 59 60 62 63 61 59 56 55 55 57 57 56 55 56 58 62 64 63 59 57 58 57 56 57
73 73 74 74 74 75 75 76 76 76 75 75 74 73 73 71 68 68 70 69 67 65 63 65 65 61 59 59 60 60 60 60 61 61 60 60 61 61 60 61 62 63 64 65 65 62 59 57 58 60 61 63 65 67 69 68 63 58 55 56 56 56 56
74 75 76 77 77 78 79 79 79 80 79 79 79 78 78 77 75 75 76 75 74 70 66 66 67 67 68 69 69 68 68 67 65 63 63 64 65 65 64 65 66 68 68 69 69 67 65 63 65 68 70 71 71 70 69 67 65 63 62 62 60 59 58
74 75 77 78 79 79 80 81 81 81 81 81 81 80 80 78 76 76 75 74 72 68 63 62 64 66 67 69 70 70 69 67 65 65 65 66 67 68 68 69 71 73 73 72 71 70 70 70 72 74 74 74 72 70 70 70 68 68 68 68 68 67 66
72 74 76 77 77 77 78 78 78 78 77 77 77 76 75 74 72 70 68 66 66 63 61 64 67 67 66 66 67 68 66 65 64 66 67 69 70 70 70 71 72 74 74 73 73 72 73 73 74 75 76 75 74 72 73 73 72 72 72 73 73 72 73
72 73 74 75 75 74 75 74 74 73 73 73 73 72 70 68 66 65 63 61 61 59 57 61 65 65 64 66 67 67 66 65 65 69 72 72 72 71 71 72 73 74 75 75 75 75 75 75 76 76 77 76 76 75 75 76 76 76 75 75 76 76 76
73 74 75 75 75 74 74 74 73 73 72 72 72 71 70 68 65 63 62 61 60 58 57 59 62 62 64 67 68 67 66 65 66 70 74 74 72 72 72 74 75 76 76 77 77 77 77 78 78 78 78 78 78 77 77 77 78 78 77 76 76 77 76
75 75 76 77 77 77 76 76 75 75 75 74 74 74 73 71 68 65 64 64 63 62 63 64 65 66 68 69 68 67 65 65 66 68 70 71 71 71 72 72 73 74 74 75 75 75 76 76 77 78 78 79 79 79 79 78 78 77 76 75 74 74 73
78 77 78 78 79 78 78 78 78 78 77 78 77 77 77 75 72 69 68 68 68 68 68 68 68 69 70 70 69 68 68 68 68 68 68 68 69 69 70 70 69 70 70 71 71 71 71 71 72 73 74 75 76 76 76 75 74 74 73 72 71 71 70
80 80 79 79 79 79 79 79 79 79 79 79 79 79 79 79 77 74 73 73 73 73 72 72 71 71 72 72 72 70 70 69 70 70 69 69 69 69 69 68 68 68 68 68 68 68 68 68 68 69 70 72 72 72 72 72 72 72 71 70 70 70 70
Wind_Direction
279 279 277 275 273 270 268 265 264 263 261 260 258 255 250 245 239 236 232 228 226 226 226 228 230 233 235 238 241 243 244 245 246 247 248 247 244 240 241 244 250 255 254 254 254 250 248 248 250 253 257 261 264 266 267 268 268 269 268 266 263 259 257
278 276 273 271 270 268 268 267 267 265 262 260 258 256 254 252 248 244 240 236 234 232 231 232 234 236 238 239 241 242 244 246 248 248 248 246 240 234 236 243 248 250 249 250 252 249 246 246 248 250 254 259 262 264 267 269 271 271 270 268 266 263 260
277 274 271 269 267 268 269 269 268 266 263 260 257 256 255 255 254 252 250 247 243 241 239 239 239 240 240 242 243 245 246 247 248 247 245 242 236 232 236 241 242 245 246 246 246 246 247 248 249 252 256 258 260 263 266 269 271 272 272 271 269 267 265
275 272 271 270 270 271 271 271 270 268 265 262 259 258 256 256 255 255 255 254 252 250 249 248 247 247 247 248 248 248 248 247 246 244 242 241 239 237 236 235 235 240 243 242 240 242 246 250 251 254 257 258 259 262 265 267 268 270 271 271 269 267 265
277 272 272 273 273 274 274 274 273 270 267 265 262 259 257 256 255 256 256 256 256 255 254 253 252 251 251 251 251 251 250 248 246 243 241 241 241 241 239 238 238 237 235 236 238 240 244 249 253 255 256 257 258 260 262 265 266 267 268 269 268 267 266
279 274 273 272 273 274 275 275 273 272 270 268 267 264 262 261 262 262 262 261 261 260 258 257 255 255 254 254 253 253 252 251 249 247 243 242 242 244 246 246 243 237 232 233 239 241 244 250 254 257 259 260 260 261 262 263 265 266 267 267 266 266 266
274 279 280 278 276 274 273 272 271 272 271 270 270 269 268 268 268 269 269 268 268 267 266 265 264 263 261 260 258 257 255 254 253 251 249 246 245 245 247 247 246 242 238 238 240 244 248 253 257 260 263 263 264 264 264 263 263 265 266 266 265 264 265
271 279 284 284 280 275 272 272 272 273 273 274 273 272 270 269 269 271 273 274 274 274 274 273 271 270 268 267 266 263 260 257 256 255 255 253 250 248 247 247 247 246 244 243 245 247 250 255 258 261 263 264 265 265 265 265 265 265 265 265 265 263 263
271 274 279 280 278 275 274 274 275 275 275 275 275 275 273 271 272 273 274 276 277 278 278 276 275 274 272 272 271 268 265 263 262 261 261 260 258 256 253 251 250 249 249 250 251 252 255 258 260 262 263 263 264 264 265 266 266 266 266 266 265 264 263
271 272 274 274 272 271 272 274 276 277 277 276 276 275 273 272 273 275 277 278 278 280 280 279 277 276 275 274 273 272 270 269 268 268 267 265 264 262 260 258 256 255 254 255 256 257 259 261 263 264 264 263 263 264 265 266 267 267 268 267 267 266 265
269 271 272 271 269 268 270 273 276 278 279 278 278 277 273 272 275 276 277 279 280 281 281 280 279 277 276 276 275 274 273 273 272 272 271 269 267 265 263 262 261 260 259 259 260 261 262 263 264 264 264 263 264 265 266 266 267 267 268 268 268 267 265
267 267 268 269 270 270 272 275 277 278 278 278 278 277 275 274 275 276 275 276 277 279 280 280 280 279 278 277 276 275 274 273 272 271 270 268 267 266 266 265 265 264 263 262 262 263 264 264 264 264 263 262 263 265 266 267 267 268 269 269 269 268 266
262 261 262 264 265 267 270 273 274 275 276 277 278 278 277 276 276 276 277 276 276 276 277 279 279 279 279 278 278 277 276 274 273 271 270 268 267 266 266 267 267 267 267 266 265 265 264 264 264 264 263 262 262 263 264 265 267 268 270 269 269 270 269
251 253 256 258 259 261 263 265 268 272 275 276 276 276 277 278 278 277 278 280 279 277 277 278 280 281 280 280 279 278 278 277 276 274 273 272 270 268 267 267 268 267 267 267 267 267 266 266 265 265 264 264 263 262 261 262 263 265 267 268 267 267 268
245 249 253 253 253 255 257 261 266 273 277 277 277 276 275 277 279 279 279 282 283 281 279 279 281 282 281 281 280 279 278 277 276 276 275 274 273 271 269 269 269 269 268 267 267 267 267 267 266 266 266 266 265 265 264 263 263 263 263 264 264 264 264
249 251 253 253 253 253 254 258 265 274 278 279 278 277 275 275 277 278 280 283 284 283 281 281 282 282 282 282 281 280 279 278 277 277 277 276 275 273 272 271 271 271 270 269 269 268 267 267 266 266 266 267 267 267 267 267 267 266 265 263 262 262 262
255 255 256 257 257 257 257 261 268 276 280 279 279 279 276 272 273 276 280 283 284 282 281 281 282 283 283 283 283 282 281 280 280 279 279 278 277 276 275 274 274 274 273 272 272 270 269 268 268 267 268 267 267 266 267 267 268 268 267 266 264 263 263
259 260 261 262 263 264 266 269 274 277 279 279 279 279 275 272 273 275 279 282 283 281 280 282 283 283 283 283 283 283 283 283 282 281 281 280 279 278 278 277 277 277 276 275 274 274 272 271 271 270 270 269 269 268 267 266 267 267 267 267 267 266 265
261 263 264 266 267 270 272 274 276 277 277 277 277 277 276 275 276 277 280 281 281 279 279 280 281 282 283 283 283 283 283 283 282 281 280 280 279 280 280 280 280 280 280 278 277 276 275 274 273 272 271 271 270 269 268 267 267 267 267 267 267 266 265
261 263 265 266 268 270 272 274 275 275 275 275 275 275 276 278 279 279 280 281 279 278 278 278 278 279 280 281 282 282 282 281 280 279 278 278 278 279 279 280 281 281 280 279 278 277 276 275 274 273 272 271 270 269 269 268 268 267 266 265 265 265 265
260 262 263 265 267 269 271 272 273 273 273 273 273 274 275 277 278 279 280 280 279 277 276 276 276 277 278 279 280 280 280 279 278 277 277 278 278 278 279 279 280 280 280 279 277 276 275 274 274 272 271 270 270 269 268 268 267 267 267 266 266 266 266
259 260 262 264 266 268 270 270 270 270 270 271 272 273 274 275 277 278 279 279 278 278 278 277 277 278 279 280 280 280 279 279 278 278 278 278 277 277 278 280 280 279 277 276 274 273 273 273 273 272 272 271 270 269 268 268 267 266 266 267 268 268 267
259 261 262 263 264 265 266 267 267 267 268 270 271 272 274 275 276 277 278 279 279 280 280 280 281 281 282 282 281 280 280 279 279 278 279 279 278 278 280 282 281 280 277 273 271 272 274 274 273 273 272 271 270 269 269 269 269 268 267 267 267 267 267
260 262 263 263 263 263 263 264 266 268 269 270 272 274 276 276 276 276 277 279 280 281 282 283 284 284 284 282 281 280 279 278 277 276 276 276 277 278 280 276 271 271 271 269 268 270 272 273 273 272 271 271 270 269 269 270 272 272 270 267 265 265 267
261 262 263 264 264 264 265 265 267 269 270 271 273 274 275 274 274 274 274 275 277 279 281 283 283 283 282 280 278 277 277 276 275 273 273 272 271 272 272 266 260 258 258 261 266 269 269 269 269 269 269 269 269 269 269 271 273 274 273 270 267 266 266
261 262 263 264 265 266 267 268 269 270 270 271 272 271 270 271 271 272 272 273 274 278 281 282 281 280 277 275 273 273 273 273 272 271 271 270 268 266 265 264 261 259 258 261 266 268 267 264 263 264 265 267 268 268 269 272 275 275 272 270 269 268 267
261 262 263 264 265 266 267 268 269 270 271 271 271 269 269 269 270 271 272 273 273 275 277 277 276 276 274 272 271 270 269 270 271 270 270 269 268 266 264 263 262 262 263 263 263 264 263 262 260 261 262 264 265 266 268 272 276 275 270 267 267 267 266
261 262 263 264 265 266 266 267 268 268 269 270 270 269 268 267 267 270 272 272 270 269 268 267 268 269 269 270 271 270 268 268 268 269 269 269 267 265 264 263 262 262 264 264 264 263 262 261 259 259 260 262 265 267 270 275 277 273 267 264 264 264 263
262 263 263 264 264 264 265 266 266 267 267 268 268 268 268 267 267 268 269 269 270 271 271 269 267 264 263 266 268 268 269 270 269 268 267 266 265 264 264 263 262 261 261 263 265 265 263 260 258 258 260 264 267 271 274 277 279 277 274 270 268 265 263
262 262 262 263 263 263 264 264 265 266 267 267 267 268 268 268 267 267 268 269 271 272 272 271 269 265 264 265 266 266 267 269 269 267 265 264 264 264 263 262 261 261 261 262 265 267 266 264 262 263 265 268 271 274 276 278 280 282 282 281 279 277 275
262 263 263 263 264 264 265 265 266 266 267 267 268 269 269 269 269 269 269 270 270 269 267 266 266 266 265 265 265 265 266 266 265 265 264 262 262 262 261 261 262 263 264 265 266 267 268 267 267 268 271 273 275 276 277 278 279 280 281 282 283 283 283
264 264 265 266 266 266 267 267 268 268 268 269 269 269 269 270 270 270 270 269 268 266 263 262 263 264 264 264 263 262 262 262 263 263 262 261 260 261 261 262 263 264 266 267 267 267 267 268 268 270 272 274 276 276 277 277 278 278 279 280 281 282 283
266 267 267 268 268 269 269 269 270 270 270 270 270 269 268 268 268 268 268 268 266 265 263 262 261 261 262 262 262 262 261 261 262 262 261 261 261 262 263 263 264 265 266 267 268 268 268 268 269 270 272 273 274 275 275 275 276 277 278 279 280 280 281
268 268 269 270 270 270 271 271 272 272 271 271 270 269 268 267 266 266 266 266 265 264 261 259 259 259 261 262 263 264 264 263 262 262 263 264 265 265 265 264 265 266 267 268 268 268 269 269 270 271 272 273 274 275 275 275 276 277 278 279 279 279 279
268 269 269 270 270 271 271 272 273 273 273 272 271 270 269 268 266 266 265 265 264 263 261 259 259 260 261 263 264 265 265 265 264 264 265 266 267 267 267 267 267 268 269 269 269 270 270 270 271 271 272 273 274 275 275 276 276 278 279 279 279 279 279
268 268 268 268 269 269 270 270 271 271 271 272 272 272 272 271 269 268 266 266 264 263 262 261 261 261 262 263 264 264 265 266 266 265 266 267 267 267 268 268 269 270 270 271 271 271 272 272 272 273 273 273 274 274 275 277 277 278 278 279 279 280 280
265 264 264 264 265 265 266 266 267 267 268 268 269 270 271 272 272 271 271 269 268 267 266 264 263 263 264 265 264 264 264 265 265 265 266 266 267 267 268 268 269 269 270 270 271 272 273 273 273 274 273 274 274 275 276 277 277 277 278 279 279 280 280
Height
10636 10637 10637 10637 10637 10636 10636 10637 10637 10637 10637 10636 10636 10637 10638 10638 10640 10640 10641 10643 10644 10645 10646 10647 10647 10646 10646 10647 10647 10648 10649 10650 10650 10650 10650 10651 10654 10654 10651 10648 10646 10646 10646 10645 10644 10643 10642 10641 10642 10642 10642 10642 10642 10642 10643 10643 10644 10644 10644 10643 10643 10642 10641
10631 10632 10632 10632 10631 10631 10631 10631 10632 10633 10633 10633 10633 10633 10634 10634 10635 10636 10637 10638 10639 10641 10642 10643 10643 10643 10643 10643 10643 10644 10645 10645 10645 10646 10646 10647 10648 10649 10647 10644 10643 10642 10643 10642 10639 10637 10637 10636 10637 10637 10637 10637 10637 10637 10638 10638 10638 10638 10638 10637 10637 10636 10635
10626 10627 10627 10626 10625 10625 10625 10626 10627 10627 10628 10628 10628 10629 10629 10630 10630 10631 10632 10633 10635 10636 10637 10638 10638 10639 10639 10639 10639 10639 10640 10640 10640 10641 10641 10642 10642 10642 10641 10640 10640 10639 10640 10640 10636 10634 10632 10631 10632 10632 10632 10633 10633 10632 10633 10632 10632 10632 10631 10631 10631 10630 10629
10621 10622 10622 10621 10620 10620 10620 10621 10622 10622 10622 10623 10624 10625 10625 10626 10626 10627 10627 10628 10629 10630 10631 10632 10633 10633 10634 10633 10633 10633 10634 10634 10635 10635 10636 10637 10637 10636 10635 10635 10635 10635 10636 10636 10633 10631 10628 10625 10626 10628 10628 10628 10628 10628 10628 10628 10627 10627 10626 10626 10626 10625 10625
10616 10617 10617 10616 10616 10616 10616 10616 10617 10617 10618 10618 10619 10620 10621 10622 10623 10623 10624 10624 10625 10625 10626 10627 10627 10628 10628 10628 10628 10628 10628 10628 10629 10630 10631 10632 10631 10631 10630 10630 10630 10630 10630 10630 10628 10626 10624 10621 10622 10624 10624 10624 10624 10624 10623 10623 10623 10622 10622 10622 10621 10621 10621
10613 10613 10613 10612 10611 10612 10612 10612 10612 10613 10613 10614 10615 10616 10617 10618 10619 10620 10621 10621 10621 10621 10622 10622 10623 10623 10623 10623 10623 10622 10622 10623 10623 10624 10626 10626 10626 10626 10626 10626 10626 10626 10625 10625 10624 10622 10621 10619 10620 10620 10620 10620 10619 10619 10619 10619 10618 10618 10618 10618 10617 10617 10617
10609 10609 10609 10608 10608 10608 10607 10608 10608 10609 10609 10610 10611 10612 10613 10615 10616 10616 10617 10617 10618 10618 10618 10618 10618 10618 10619 10618 10618 10618 10617 10618 10618 10618 10619 10620 10621 10621 10621 10622 10622 10622 10621 10621 10620 10619 10618 10617 10617 10617 10616 10616 10616 10616 10615 10615 10614 10614 10613 10613 10613 10613 10612
10605 10605 10605 10605 10604 10604 10603 10604 10604 10605 10606 10607 10607 10608 10610 10611 10612 10613 10613 10613 10613 10613 10614 10614 10614 10614 10614 10614 10614 10613 10613 10613 10613 10613 10614 10615 10615 10615 10616 10616 10616 10617 10616 10616 10615 10615 10614 10613 10613 10613 10612 10612 10612 10611 10611 10610 10610 10609 10609 10608 10608 10608 10608
10601 10601 10601 10601 10601 10600 10600 10600 10601 10602 10603 10603 10604 10604 10605 10606 10607 10608 10608 10609 10609 10609 10609 10609 10609 10609 10609 10609 10609 10609 10609 10609 10609 10609 10609 10609 10610 10610 10610 10611 10611 10611 10611 10610 10610 10610 10609 10609 10608 10608 10608 10608 10607 10607 10606 10606 10605 10605 10604 10604 10603 10603 10603
10597 10596 10596 10597 10597 10597 10596 10596 10597 10598 10599 10600 10600 10601 10601 10602 10603 10603 10604 10604 10604 10604 10604 10604 10604 10604 10604 10604 10604 10604 10604 10604 10604 10604 10604 10604 10604 10604 10605 10605 10605 10605 10604 10604 10604 10604 10604 10603 10603 10603 10603 10602 10602 10602 10602 10601 10601 10600 10600 10599 10598 10598 10598
10593 10592 10592 10592 10592 10592 10592 10592 10593 10593 10594 10595 10596 10596 10597 10597 10598 10598 10599 10599 10599 10599 10599 10599 10599 10599 10599 10599 10599 10599 10599 10599 10599 10599 10599 10599 10599 10598 10599 10598 10598 10598 10598 10598 10598 10597 10597 10597 10597 10597 10597 10597 10597 10596 10596 10596 10596 10595 10595 10594 10594 10593 10593
10588 10588 10587 10586 10586 10586 10586 10587 10587 10588 10589 10590 10591 10592 10592 10593 10593 10593 10594 10594 10594 10594 10594 10594 10594 10594 10594 10594 10594 10594 10594 10594 10594 10593 10593 10593 10593 10593 10592 10592 10592 10592 10592 10591 10591 10591 10591 10591 10591 10591 10591 10591 10591 10591 10591 10591 10591 10590 10590 10590 10589 10589 10589
10583 10582 10581 10581 10581 10581 10581 10581 10582 10583 10583 10584 10585 10586 10586 10587 10587 10588 10588 10589 10589 10589 10589 10589 10589 10589 10589 10589 10589 10589 10589 10589 10588 10588 10588 10587 10587 10587 10586 10586 10586 10585 10585 10585 10585 10585 10585 10585 10585 10585 10585 10585 10585 10585 10585 10585 10585 10584 10585 10585 10584 10584 10584
10576 10575 10575 10575 10576 10576 10576 10576 10577 10578 10578 10579 10580 10580 10580 10580 10580 10581 10581 10582 10583 10583 10584 10584 10584 10584 10584 10584 10583 10583 10583 10583 10583 10582 10582 10581 10581 10581 10580 10580 10579 10579 10579 10578 10578 10578 10578 10578 10579 10579 10579 10579 10579 10579 10578 10578 10579 10578 10579 10579 10579 10578 10578
10568 10568 10568 10569 10569 10570 10571 10571 10572 10573 10574 10574 10574 10574 10574 10574 10574 10573 10574 10575 10575 10576 10576 10577 10577 10577 10577 10577 10577 10578 10577 10577 10576 10576 10576 10575 10575 10574 10574 10574 10573 10573 10572 10572 10572 10572 10572 10572 10572 10572 10572 10572 10572 10572 10572 10572 10572 10573 10573 10572 10572 10573 10573
10561 10561 10562 10562 10563 10564 10564 10565 10565 10566 10568 10568 10568 10568 10568 10568 10568 10568 10567 10567 10567 10568 10568 10569 10569 10569 10569 10570 10570 10571 10571 10570 10570 10570 10569 10569 10569 10568 10568 10568 10567 10567 10567 10566 10566 10566 10566 10566 10565 10565 10565 10565 10566 10566 10566 10567 10567 10567 10567 10566 10566 10566 10566
10555 10555 10556 10556 10557 10557 10558 10559 10560 10560 10561 10562 10562 10561 10561 10562 10562 10563 10562 10561 10561 10560 10561 10561 10561 10561 10561 10561 10562 10563 10563 10563 10563 10563 10563 10562 10562 10562 10562 10562 10561 10561 10561 10560 10560 10560 10559 10559 10558 10558 10558 10558 10558 10559 10559 10560 10561 10561 10560 10560 10560 10559 10559
10549 10549 10550 10551 10551 10551 10551 10551 10553 10554 10554 10554 10555 10554 10554 10555 10556 10556 10557 10556 10556 10555 10554 10553 10553 10553 10553 10553 10553 10554 10554 10555 10554 10555 10555 10555 10555 10555 10555 10555 10555 10555 10554 10554 10554 10553 10553 10552 10551 10551 10551 10551 10551 10552 10552 10552 10553 10553 10553 10553 10552 10552 10553
10543 10542 10543 10544 10544 10545 10544 10544 10545 10546 10547 10547 10548 10548 10548 10547 10548 10549 10550 10550 10551 10550 10550 10548 10547 10546 10545 10545 10545 10546 10546 10546 10546 10546 10547 10547 10548 10548 10548 10548 10548 10548 10548 10547 10547 10546 10545 10545 10544 10544 10543 10544 10544 10544 10545 10545 10545 10545 10546 10545 10544 10544 10545
10536 10536 10536 10537 10538 10538 10538 10538 10538 10539 10539 10540 10541 10541 10541 10541 10540 10541 10542 10543 10545 10545 10545 10544 10543 10542 10540 10539 10539 10539 10539 10539 10539 10538 10539 10540 10541 10541 10542 10542 10542 10541 10540 10540 10539 10538 10537 10537 10537 10537 10536 10536 10537 10537 10538 10537 10537 10538 10538 10537 10537 10536 10537
10528 10529 10529 10531 10531 10532 10533 10533 10531 10531 10531 10533 10534 10535 10535 10535 10534 10534 10535 10536 10537 10538 10538 10538 10538 10537 10536 10535 10534 10533 10533 10532 10532 10532 10532 10533 10534 10534 10535 10535 10535 10534 10533 10532 10531 10530 10530 10530 10530 10529 10529 10529 10530 10530 10530 10530 10529 10531 10531 10530 10530 10530 10530
10521 10522 10523 10525 10526 10526 10526 10525 10525 10524 10524 10525 10527 10528 10529 10529 10528 10528 10528 10528 10529 10529 10530 10530 10530 10530 10529 10528 10527 10527 10526 10526 10525 10525 10525 10526 10527 10528 10529 10529 10528 10526 10525 10523 10523 10522 10522 10523 10522 10522 10522 10522 10523 10523 10523 10522 10522 10524 10525 10523 10523 10523 10523
10514 10514 10515 10518 10520 10520 10519 10518 10517 10517 10517 10519 10521 10523 10524 10523 10522 10522 10521 10521 10521 10521 10521 10521 10521 10521 10521 10520 10519 10519 10519 10519 10519 10518 10517 10518 10518 10520 10523 10524 10522 10519 10516 10515 10515 10515 10515 10515 10516 10515 10515 10515 10515 10516 10515 10514 10514 10516 10517 10517 10517 10516 10516
10506 10506 10507 10509 10510 10511 10511 10511 10510 10510 10512 10513 10515 10516 10517 10516 10516 10517 10516 10516 10515 10513 10513 10513 10512 10511 10511 10510 10510 10510 10511 10512 10512 10511 10512 10512 10511 10512 10517 10520 10516 10511 10508 10506 10507 10509 10509 10508 10509 10508 10507 10507 10508 10508 10508 10507 10507 10508 10509 10509 10510 10510 10509
10498 10498 10498 10499 10499 10500 10501 10502 10502 10503 10506 10509 10511 10512 10512 10512 10512 10512 10512 10512 10510 10508 10507 10506 10504 10504 10503 10501 10501 10501 10502 10503 10503 10504 10505 10506 10506 10507 10509 10510 10507 10504 10502 10501 10501 10502 10503 10502 10502 10501 10500 10500 10500 10501 10501 10501 10501 10501 10501 10502 10502 10503 10502
10490 10489 10489 10490 10490 10490 10491 10492 10493 10495 10498 10502 10505 10508 10509 10509 10508 10508 10508 10508 10507 10505 10503 10499 10495 10495 10495 10494 10493 10493 10493 10494 10494 10495 10497 10499 10500 10501 10500 10499 10497 10495 10495 10496 10496 10495 10495 10495 10495 10494 10494 10494 10494 10495 10495 10495 10495 10495 10495 10495 10494 10495 10494
10481 10481 10481 10481 10481 10482 10482 10483 10484 10485 10488 10492 10495 10499 10502 10502 10502 10502 10501 10501 10502 10502 10500 10492 10485 10484 10485 10485 10485 10486 10487 10487 10486 10487 10489 10491 10492 10493 10491 10489 10487 10485 10485 10488 10490 10488 10487 10488 10487 10487 10487 10488 10488 10488 10488 10488 10488 10488 10488 10487 10487 10487 10487
10472 10472 10472 10473 10473 10473 10473 10474 10474 10475 10477 10480 10484 10487 10489 10492 10493 10491 10489 10490 10492 10494 10493 10485 10477 10476 10477 10476 10476 10477 10479 10480 10480 10480 10481 10482 10482 10483 10483 10481 10479 10477 10475 10476 10479 10481 10481 10480 10480 10480 10480 10481 10481 10482 10481 10481 10481 10480 10479 10479 10480 10480 10479
10462 10462 10463 10463 10463 10464 10464 10464 10464 10465 10467 10469 10472 10474 10476 10478 10481 10480 10477 10478 10480 10482 10480 10474 10470 10470 10470 10469 10469 10468 10470 10472 10473 10474 10475 10473 10472 10473 10474 10473 10471 10470 10468 10466 10468 10471 10473 10473 10474 10473 10473 10473 10474 10474 10473 10472 10471 10471 10470 10470 10470 10470 10470
10452 10452 10452 10452 10453 10454 10454 10454 10454 10455 10457 10458 10460 10462 10464 10466 10469 10469 10468 10468 10469 10472 10470 10463 10459 10460 10460 10460 10460 10460 10461 10464 10465 10466 10466 10464 10463 10464 10465 10464 10461 10460 10460 10459 10459 10461 10463 10464 10465 10464 10464 10465 10465 10465 10463 10462 10462 10461 10461 10460 10460 10459 10460
10442 10441 10441 10441 10443 10443 10443 10443 10444 10445 10447 10448 10449 10450 10452 10454 10457 10458 10459 10460 10461 10464 10463 10455 10449 10450 10450 10450 10450 10450 10452 10455 10456 10456 10455 10454 10454 10453 10453 10453 10452 10450 10451 10452 10453 10453 10454 10454 10454 10453 10453 10454 10455 10455 10453 10452 10452 10453 10452 10450 10450 10450 10449
10431 10431 10431 10431 10432 10432 10432 10433 10433 10434 10436 10437 10438 10440 10442 10444 10445 10446 10448 10450 10450 10453 10454 10447 10441 10441 10441 10440 10440 10440 10442 10446 10447 10445 10444 10443 10443 10443 10443 10444 10444 10443 10443 10444 10445 10445 10445 10445 10445 10444 10444 10445 10446 10447 10445 10443 10443 10444 10443 10442 10441 10441 10440
10421 10421 10420 10420 10422 10422 10422 10422 10423 10424 10425 10426 10426 10428 10431 10434 10436 10436 10438 10439 10439 10442 10444 10438 10431 10431 10431 10430 10430 10431 10434 10437 10437 10433 10430 10431 10433 10434 10435 10435 10435 10434 10435 10435 10436 10436 10436 10436 10437 10436 10436 10437 10437 10438 10438 10435 10434 10434 10434 10434 10433 10433 10432
10411 10411 10410 10410 10412 10412 10412 10412 10413 10413 10415 10415 10415 10416 10419 10422 10425 10428 10429 10429 10429 10432 10433 10429 10423 10422 10422 10421 10420 10422 10425 10427 10427 10423 10419 10420 10423 10425 10425 10426 10426 10426 10426 10426 10426 10427 10427 10427 10428 10428 10428 10428 10428 10428 10429 10428 10426 10424 10425 10425 10424 10423 10423
10401 10401 10401 10401 10401 10403 10403 10403 10404 10404 10404 10404 10404 10404 10406 10409 10414 10418 10418 10418 10419 10420 10419 10418 10415 10414 10413 10412 10411 10413 10415 10416 10416 10414 10412 10413 10414 10415 10415 10416 10416 10416 10417 10417 10417 10418 10418 10418 10419 10419 10418 10418 10418 10418 10418 10418 10417 10416 10415 10415 10414 10413 10413
10390 10391 10392 10391 10392 10393 10394 10394 10394 10395 10394 10394 10393 10393 10393 10395 10401 10406 10407 10406 10408 10407 10405 10406 10406 10404 10403 10403 10403 10404 10405 10405 10404 10405 10405 10406 10407 10406 10406 10406 10408 10408 10408 10408 10408 10409 10409 10409 10410 10410 10409 10409 10408 10407 10407 10408 10407 10407 10406 10406 10405 10404 10403
10379 10381 10382 10382 10382 10384 10384 10384 10384 10384 10384 10384 10384 10384 10384 10384 10388 10393 10393 10393 10394 10393 10392 10393 10393 10393 10393 10392 10392 10393 10394 10395 10394 10395 10397 10398 10398 10397 10397 10399 10400 10399 10400 10400 10400 10400 10401 10401 10401 10401 10400 10399 10398 10398 10397 10397 10397 10396 10396 10396 10396 10395 10394